Date String (YYYY-MM-DD hh:mm:ss) UTC,Instrument flags,Ambient pressure (hPa),Sample flow (lpm),Bypass flow (lpm),Sample temperature (°C),Ambient temperature (°C),ASC tube jacket temperature (°C),LED temperature (°C),Box temperature (°C),Sample RH (%),Span deviation,Mass concentration (μg/m³),Mass concentration (μg/m³),Mass concentration (μg/m³)
DateTimeUTC,F1_M11,P_M11,Q1_M11,Q2_M11,T1_M11,T2_M11,T3_M11,T4_M11,T5_M11,U1_M11,ZSPAN_M11,X0_M11,X2_M11,X1_M11
2022-10-08 09:00:00,,0836.6,5.00,0.00,25.8,24.3,00.0,34.5,27.7,23.9,-001.6,0014.83,0009.95,0009.57
2022-10-08 09:01:00,,0836.5,4.99,0.00,25.8,24.3,00.0,34.5,27.7,23.9,-001.8,0014.52,0009.93,0009.55
2022-10-08 09:02:00,,0836.5,5.00,0.00,25.8,24.3,00.0,34.5,27.7,23.9,-001.7,0014.32,0009.96,0009.56
2022-10-08 09:03:00,,0836.6,5.01,0.00,25.8,24.3,00.0,34.5,27.7,23.9,-001.6,0014.20,0009.95,0009.56
2022-10-08 09:04:00,,0836.5,5.00,0.00,25.8,24.3,00.0,34.5,27.7,23.9,-001.6,0013.96,0009.94,0009.54
2022-10-08 09:05:00,,0836.5,5.00,0.00,25.8,24.3,00.0,34.6,27.7,23.8,-001.8,0013.85,0009.93,0009.52
2022-10-08 09:06:00,,0836.6,5.00,0.00,25.8,24.4,00.0,34.6,27.7,23.8,-001.7,0013.87,0009.93,0009.50
2022-10-08 09:07:00,,0836.5,5.01,0.00,25.8,24.4,00.0,34.6,27.8,23.8,-001.7,0014.22,0009.93,0009.51
2022-10-08 09:08:00,,0836.5,4.99,0.00,25.8,24.4,00.0,34.6,27.7,23.8,-002.1,0014.26,0009.93,0009.50
2022-10-08 09:09:00,,0836.5,5.00,0.00,25.8,24.4,00.0,34.6,27.8,23.8,-002.1,0014.25,0009.92,0009.49
2022-10-08 09:10:00,,0836.5,5.00,0.00,25.8,24.4,00.0,34.6,27.7,23.8,-002.1,0014.20,0009.90,0009.46
2022-10-08 09:11:00,,0836.5,5.01,0.00,25.8,24.4,00.0,34.6,27.8,23.8,-001.9,0014.42,0009.85,0009.44
2022-10-08 09:12:00,,0836.5,4.99,0.00,25.8,24.4,00.0,34.6,27.8,23.8,-002.0,0014.17,0009.85,0009.43
2022-10-08 09:13:00,,0836.5,4.99,0.00,25.8,24.4,00.0,34.6,27.8,23.8,-002.1,0014.17,0009.83,0009.42
2022-10-08 09:14:00,,0836.5,5.00,0.00,25.8,24.4,00.0,34.6,27.8,23.8,-001.9,0014.29,0009.87,0009.42
2022-10-08 09:15:00,,0836.5,5.00,0.00,25.8,24.4,00.0,34.6,27.8,23.8,-001.9,0014.39,0009.88,0009.42
2022-10-08 09:16:00,,0836.5,5.01,0.00,25.8,24.4,00.0,34.6,27.8,23.8,-001.7,0014.37,0009.88,0009.43
2022-10-08 09:17:00,,0836.5,4.99,0.00,25.8,24.4,00.0,34.6,27.8,23.8,-001.6,0014.27,0009.85,0009.43
2022-10-08 09:18:00,,0836.5,5.01,0.00,25.8,24.4,00.0,34.6,27.8,23.8,-001.4,0014.06,0009.87,0009.43
2022-10-08 09:19:00,,0836.6,5.00,0.00,25.8,24.4,00.0,34.6,27.8,23.7,-001.4,0014.10,0009.90,0009.46
2022-10-08 09:20:00,,0836.5,5.00,0.00,25.8,24.4,00.0,34.6,27.8,23.7,-001.3,0014.44,0009.99,0009.48
2022-10-08 09:21:00,,0836.5,4.99,0.00,25.8,24.4,00.0,34.6,27.8,23.7,-001.2,0014.55,0010.03,0009.51
2022-10-08 09:22:00,,0836.5,5.01,0.00,25.9,24.4,00.0,34.6,27.8,23.7,-001.1,0014.29,0010.06,0009.52
2022-10-08 09:23:00,,0836.5,4.99,0.00,25.9,24.5,00.0,34.6,27.8,23.7,-000.9,0014.09,0010.13,0009.55
2022-10-08 09:24:00,,0836.5,4.99,0.00,25.9,24.5,00.0,34.6,27.8,23.8,-000.8,0014.20,0010.19,0009.58
2022-10-08 09:25:00,,0836.5,4.99,0.00,25.9,24.4,00.0,34.6,27.8,23.8,-000.9,0014.29,0010.21,0009.61
2022-10-08 09:26:00,,0836.5,5.01,0.00,25.9,24.5,00.0,34.6,27.8,23.8,-000.7,0014.28,0010.24,0009.63
2022-10-08 09:27:00,,0836.5,4.98,0.00,25.9,24.5,00.0,34.6,27.8,23.9,-000.8,0014.26,0010.23,0009.63
2022-10-08 09:28:00,,0836.5,5.01,0.00,25.9,24.4,00.0,34.6,27.8,24.5,-001.1,0014.33,0010.25,0009.62
2022-10-08 09:29:00,,0836.5,5.00,0.00,25.9,24.4,00.0,34.6,27.8,26.2,-001.4,0014.22,0010.22,0009.59
2022-10-08 09:30:00,,0836.5,4.99,0.00,25.9,24.4,00.0,34.6,27.8,25.5,-001.3,0014.17,0010.17,0009.53
2022-10-08 09:31:00,,0836.5,4.99,0.00,25.9,24.4,00.0,34.6,27.8,24.6,-001.2,0013.94,0010.10,0009.50
2022-10-08 09:32:00,,0836.5,5.02,0.00,25.9,24.4,00.0,34.6,27.8,24.5,-001.2,0013.71,0010.00,0009.44
2022-10-08 09:33:00,,0836.5,5.00,0.00,25.9,24.4,00.0,34.6,27.8,24.6,-001.3,0013.66,0009.96,0009.40
2022-10-08 09:34:00,,0836.5,5.00,0.00,25.9,24.5,00.0,34.6,27.8,24.5,-001.4,0013.52,0009.90,0009.37
2022-10-08 09:35:00,,0836.5,5.01,0.00,25.9,24.5,00.0,34.6,27.8,24.5,-001.6,0013.57,0009.85,0009.32
2022-10-08 09:36:00,,0836.5,5.00,0.00,25.9,24.5,00.0,34.7,27.9,24.3,-001.8,0013.29,0009.75,0009.26
2022-10-08 09:37:00,,0836.5,4.99,0.00,25.9,24.5,00.0,34.7,27.9,24.2,-001.7,0013.41,0009.71,0009.23
2022-10-08 09:38:00,,0836.5,5.01,0.00,25.9,24.5,00.0,34.7,27.9,24.0,-001.6,0014.26,0009.73,0009.22
2022-10-08 09:39:00,,0836.4,5.01,0.00,25.9,24.5,00.0,34.7,27.8,24.0,-001.5,0014.32,0009.72,0009.20
2022-10-08 09:40:00,,0836.5,4.99,0.00,25.9,24.5,00.0,34.7,27.8,24.0,-001.7,0014.37,0009.71,0009.19
2022-10-08 09:41:00,,0836.5,5.00,0.00,25.9,24.5,00.0,34.7,27.9,23.9,-001.5,0014.38,0009.75,0009.23
2022-10-08 09:42:00,,0836.5,5.00,0.00,25.9,24.5,00.0,34.7,27.9,23.8,-001.5,0014.46,0009.79,0009.26
2022-10-08 09:43:00,,0836.5,4.99,0.00,25.9,24.5,00.0,34.7,27.9,23.7,-001.7,0014.53,0009.84,0009.31
2022-10-08 09:44:00,,0836.5,4.99,0.00,25.9,24.5,00.0,34.7,27.9,23.8,-001.7,0014.55,0009.88,0009.36
2022-10-08 09:45:00,,0836.5,5.01,0.00,25.9,24.5,00.0,34.7,27.9,23.8,-001.6,0014.66,0009.92,0009.38
2022-10-08 09:46:00,,0836.5,5.01,0.00,25.9,24.5,00.0,34.7,27.9,23.8,-001.6,0015.01,0009.94,0009.42
2022-10-08 09:47:00,,0836.5,5.00,0.00,25.9,24.5,00.0,34.7,27.9,23.7,-001.3,0015.32,0010.00,0009.45
2022-10-08 09:48:00,,0836.5,4.99,0.00,25.9,24.5,00.0,34.7,27.9,23.8,-001.5,0015.36,0010.04,0009.48
2022-10-08 09:49:00,,0836.5,5.00,0.00,25.9,24.5,00.0,34.7,27.9,23.9,-001.4,0014.69,0010.06,0009.51
2022-10-08 09:50:00,,0836.5,5.02,0.00,25.9,24.5,00.0,34.7,27.9,23.9,-001.3,0014.65,0010.06,0009.53
2022-10-08 09:51:00,,0836.5,5.00,0.00,26.0,24.5,00.0,34.7,27.9,24.0,-001.0,0014.95,0010.12,0009.58
2022-10-08 09:52:00,,0836.5,5.00,0.00,26.0,24.5,00.0,34.7,27.9,24.4,-001.2,0015.32,0010.11,0009.55
2022-10-08 09:53:00,,0836.5,5.01,0.00,26.0,24.5,00.0,34.7,27.9,24.3,-001.2,0015.26,0010.10,0009.56
2022-10-08 09:54:00,,0836.5,5.01,0.00,26.0,24.5,00.0,34.7,27.9,24.3,-001.0,0015.34,0010.12,0009.56
2022-10-08 09:55:00,,0836.5,4.99,0.00,26.0,24.5,00.0,34.7,27.9,24.4,-001.1,0015.37,0010.13,0009.56
2022-10-08 09:56:00,,0836.5,4.99,0.00,26.0,24.5,00.0,34.7,27.9,24.4,-001.1,0015.40,0010.09,0009.55
2022-10-08 09:57:00,,0836.5,4.99,0.00,26.0,24.6,00.0,34.7,27.9,24.4,-001.1,0015.00,0010.06,0009.54
2022-10-08 09:58:00,,0836.5,5.00,0.00,26.0,24.6,00.0,34.7,27.9,24.5,-001.4,0015.41,0010.06,0009.54
2022-10-08 09:59:00,,0836.5,5.01,0.00,26.0,24.6,00.0,34.7,27.9,24.7,-001.3,0015.27,0009.99,0009.50
